Regional Weather Roundup
Issued by NWS Austin/San Antonio, TX

Current Version | Previous Version | Text Only | Print | Product List | Glossary On
Versions: 1 2 3 4 5 6 7 8 9 10 11 12 13 14 15 16 17 18 19 20 21 22 23 24 25 26 27 28 29 30 31 32 33 34 35 36 37 38 39 40 41 42 43 44 45 46 47 48 49 50
000
ASUS44 KEWX 301313
RWREWX
SOUTH TEXAS REGIONAL WEATHER ROUNDUP
NATIONAL WEATHER SERVICE AUSTIN/SAN ANTONIO TX
800 AM CDT FRI SEP 30 2022

NOTE: "FAIR" INDICATED FEW OR NO CLOUDS BELOW 12,000 FEET WITH NO
SIGNIFICANT WEATHER AND/OR OBSTRUCTIONS TO VISIBILITY.

* - THESE STATIONS ARE NOT NWS OR FAA STATIONS...AND ARE NOT SUBJECT
    TO NWS AND FAA QUALITY CONTROL.

TXZ171-172-183>190-301400-
TEXAS HILL COUNTRY AND EDWARDS PLATEAU

CITY           SKY/WX    TMP DP  RH WIND       PRES   REMARKS
JUNCTION       CLEAR     54  47  77 W3        30.12R
*LLANO         CLEAR     59  48  67 E3        30.11R
BURNET         CLEAR     60  46  59 E3        30.13S
*HORSESHOE BAY CLEAR     61  46  57 CALM      30.11R
*LAGO VISTA      N/A     60  44  55 E7        30.11S
*KERRVILLE     CLEAR     53  48  83 CALM      30.11S
*FREDERICKSBRG CLEAR     55  47  75 CALM      30.11S
*ROCKSPRINGS   CLEAR     66  48  52 CALM      30.16R
*BOERNE        CLEAR     54  46  76 CALM      30.10S
*CASTROVILLE   CLEAR     63  48  59 NW3       30.09R HAZE
HONDO          CLEAR     60  47  61 NE5       30.07S
*UVALDE        CLEAR     58  50  75 NE5       30.09R
DEL RIO        CLEAR     60  54  80 CALM      30.05S
*LAUGHLIN AFB  CLEAR     59  53  81 CALM      30.03S
*SPOFFORD      CLEAR     58  50  73 W5        30.05R
CARRIZO SPRGS  CLEAR     61  52  72 CALM      30.05R
*FAITH RANCH   CLEAR     59  50  72 CALM      30.06S
$$

TXZ173-191>194-202-209-217>225-228-301400-
CENTRAL AND SOUTH CENTRAL TEXAS

CITY           SKY/WX    TMP DP  RH WIND       PRES   REMARKS
GEORGETOWN     CLEAR     60  46  59 CALM      30.12S
*TAYLOR        CLEAR     54  47  77 CALM      30.11R
AUSTIN/BERGSTM CLEAR     58  49  72 CALM      30.09R
AUSTIN/MABRY   CLEAR     64  45  49 E3        30.11R
*PFLUGERVILLE  CLEAR     59  45  58 N3        30.09S
SAN MARCOS     CLEAR     61  46  59 N6        30.11
NEW BRAUNFELS  CLEAR     62  50  64 NE5       30.08R
*RANDOLPH AFB  CLEAR     62  53  72 NE6       30.06R
*SEGUIN        CLEAR     60  52  74 NE3       30.07R
SAN ANTONIO    CLEAR     64  54  69 NE6       30.09R
STINSON FIELD  CLEAR     66  57  72 NE8       30.06R
*KELLY FIELD   CLEAR     65  53  64 NE6       30.05R
*PLEASANTON    CLEAR     59  56  88 CALM      30.07R
*KENEDY        CLEAR     62  57  83 E6        30.08S
*LA GRANGE     NOT AVBL
*GIDDINGS      CLEAR     58  46  65 CALM      30.10R
*GONZALES      CLEAR     62  48  60 NE3       30.08R
$$

TXZ163>164-176>182-195>201-210>213-226-227-235-301400-
SOUTHEAST TEXAS

CITY           SKY/WX    TMP DP  RH WIND       PRES   REMARKS
COLLEGE STN    CLEAR     60  47  61 CALM      30.10R
*BRYAN         CLEAR     55  46  71 CALM      30.12R
*CALDWELL      CLEAR     55  48  76 N3        30.11R
*CROCKETT      CLEAR     54  46  76 NE5       30.11S
*BRENHAM       CLEAR     57  50  76 CALM      30.10
HUNTSVILLE     CLEAR     53  46  77 CALM      30.10R
CONROE         CLEAR     50  48  93 MISG      30.10R
HOUSTON BUSH   CLEAR     57  49  74 N5        30.09R
HOUSTON HOBBY  CLEAR     64  46  52 NE9       30.08R
*HOUSTON SW AP NOT AVBL
PEARLAND       CLEAR     60  49  66 NE3       30.09R
HOUSTON HOOKS  CLEAR     57  48  72 NE3       30.09R
ELLINGTON FLD  CLEAR     61  50  67 N6        30.07S
SUGAR LAND     CLEAR     58  48  69 NE6       30.07S
*HOUSTON EXEC  CLEAR     55  52  88 NE5       30.09S
*CLEVELAND MUN NOT AVBL
*WHARTON       CLEAR     56  50  81 N3        30.08S
*COLUMBUS      FAIR      58  47  67 CALM      30.09S
*EAGLE LAKE    CLEAR     58  49  71 MISG      30.08S
$$

TXZ214>216-236>238-301400-
THE UPPER TEXAS COAST

CITY           SKY/WX    TMP DP  RH WIND       PRES   REMARKS
*ORANGE        SUNNY     56  49  79 CALM      30.10R
PORT ARTHUR    SUNNY     57  46  66 N8        30.07R
GALVESTON      CLEAR     66  52  60 NE12      30.07R
ANGLETON       CLEAR     56  51  84 N7        30.07R
*BAY CITY      CLEAR     59  50  73 NE7       30.07R
PALACIOS       CLEAR     59  52  77 NE7       30.06R
$$

TXZ229>234-239>247-301400-
TEXAS COASTAL BEND AND RIO GRANDE PLAINS

CITY           SKY/WX    TMP DP  RH WIND       PRES   REMARKS
VICTORIA       CLEAR     59  52  77 NE7       30.06S
*BEEVILLE      CLEAR     61  56  84 NE6       30.05S
ROCKPORT       CLEAR     70  64  81 NE9       30.04S
*PORT ARANSAS  CLEAR    N/A N/A N/A N10       30.05S
*PORT LAVACA   NOT AVBL
*INGLESIDE     CLEAR     67  64  90 N5        30.03S
CORPUS CHRISTI PTCLDY    69  64  84 NE6       30.04R
CORPUS NAS     PTCLDY    75  68  78 N7        30.03S
*ROBSTOWN      CLEAR     63  60  87 MISG      30.05R
ALICE          CLEAR     61  59  93 CALM      30.04S
KINGSVILLE NAS PTCLDY    62  61  96 NW3       30.04R
COTULLA        CLEAR     65  52  62 NE5       30.05R
LAREDO         CLEAR     64  56  75 E5        30.04R
$$

TXZ248>255-301400-
DEEP SOUTH TEXAS

CITY           SKY/WX    TMP DP  RH WIND       PRES   REMARKS
BROWNSVILLE    CLEAR     67  63  87 NW3       30.02S
PORT ISABEL    CLEAR     67  63  87 NW6       30.02S
HARLINGEN      CLEAR     62  62 100 NW3       30.02S
*HEBBRONVILLE  CLEAR     64  58  80 W5        30.06R
MCALLEN        CLEAR     66  60  81 NE3       30.04R
*WESLACO       CLEAR     63  60  91 CALM      30.04R
FALFURRIAS     CLEAR     60  58  94 CALM      30.04R FOG
EDINBURG       CLEAR     59  58  96 CALM      30.05R
*ZAPATA        CLEAR     65  62  90 CALM      30.04S
$$

TXZ213>215-236>238-242>244-246-247-251-254-255-301400-
CMAN STATIONS

STATION/POSITION TIME  TEMP    WIND        PRES    WAVE
                       AIR SEA DIR/SP/G            HT/PER
                 (UTC) (F)     (DEG/KT/KT) (MB)    (FT/S)
SEA RIM ST PARK  1300   57     350/  5/  6 1018.3
NORTH JETTY/GLS  1230   65 76   50/ 13/ 15 1016.7
EAGLE POINT      1230   68 75   40/ 12/ 15 1017.6
MORGANS POINT    1230   60 79  360/  6/  9 1017.9
MISSION/ARANSAS  1200   69      50/ 11     1017.0
PORT O`CONNOR    1230   71 85   20/ 15/ 17 1016.9
PORT ARANSAS     1300   72     360/  9/ 10   N/A
BAFFIN BAY       1230   68 80  300/  7/  8 1017.3
PORT ISABEL      1230   66 82  280/  4/  5 1016.0
$$



USA.gov is the U.S. government's official web portal to all federal, state and local government web resources and services.